Robinson, IL

5:31 AM CDT on May 26, 2017 (GMT -0500)
Robinson Municipal

Weather History for KRSV - February, 2013

Change the Weather History Date:

Sunday, February 17, 2013

  Actual Average (KLWV) Record (KLWV)
Temperature  
Mean Temperature 28 °F -  
Max Temperature 39 °F 42 °F 69 °F (2017)
Min Temperature 17 °F 27 °F -7 °F (2015)
Degree Days  
Heating Degree Days 37    
Moisture  
Dew Point 16 °F    
Average Humidity 61    
Maximum Humidity 82    
Minimum Humidity 40    
Precipitation  
Precipitation 0.00 in - - ()
Sea Level Pressure  
Sea Level Pressure 30.20 in    
Wind  
Wind Speed 5 mph (ESE)    
Max Wind Speed 10 mph    
Max Gust Speed -    
Visibility 10 miles    
Events      
Averages and records for this station are not official NWS values.
T = Trace of Precipitation, MM = Missing Value Source: NWS Daily Summary

Daily Weather History Graph

Daily Weather History Graph

Search for Another Location

Airport or City:

Trip Planner

Search our weather history database for the weather conditions in past years. The results will help you decide how hot, cold, wet, or windy it might be!

Date:

Astronomy

Feb. 17, 2013 Rise Set
Actual Time 6:39 AM CST 5:30 PM CST
Civil Twilight 6:11 AM CST 5:57 PM CST
Nautical Twilight 5:40 AM CST 6:28 PM CST
Astronomical Twilight 5:09 AM CST 6:59 PM CST
Moon 10:35 AM CST (2/17) 12:22 AM CST (2/17)
Length of Visible Light 11h 45m
Length of Day
10h 51m
Waxing Crescent, 49% of the Moon is Illuminated
Feb 17
Waxing Crescent
Feb 17
First Quarter
Feb 25
Full
Mar 4
Last Quarter
Mar 11
New

Hourly Weather History & Observations

Time (CST) Temp. Windchill Dew Point Humidity Pressure Visibility Wind Dir Wind Speed Gust Speed Precip Events Conditions
12:15 AM 24.6 °F 17.7 °F 16.5 °F 71% 30.19 in 10.0 mi North 5.8 mph - N/A   Clear
12:35 AM 22.8 °F 15.5 °F 16.3 °F 76% 30.20 in 10.0 mi North 5.8 mph - N/A   Clear
12:55 AM 22.8 °F 14.5 °F 16.0 °F 75% 30.20 in 10.0 mi NNW 6.9 mph - N/A   Clear
1:15 AM 23.0 °F 17.0 °F 15.4 °F 73% 30.20 in 10.0 mi NNW 4.6 mph - N/A   Clear
1:35 AM 23.0 °F 18.4 °F 14.9 °F 71% 30.20 in 10.0 mi NW 3.5 mph - N/A   Clear
1:55 AM 22.3 °F 16.1 °F 15.6 °F 76% 30.20 in 10.0 mi NW 4.6 mph - N/A   Clear
2:35 AM 21.7 °F 15.5 °F 15.3 °F 76% 30.20 in 10.0 mi NNW 4.6 mph - N/A   Clear
2:55 AM 21.4 °F 13.8 °F 15.6 °F 78% 30.20 in 10.0 mi North 5.8 mph - N/A   Clear
3:15 AM 21.2 °F 14.9 °F 15.1 °F 77% 30.21 in 10.0 mi North 4.6 mph - N/A   Clear
4:14 AM 19.4 °F 12.8 °F 12.2 °F 74% 30.22 in 10.0 mi North 4.6 mph - N/A   Clear
4:15 AM 19.6 °F 13.0 °F 13.1 °F 76% 30.22 in 10.0 mi North 4.6 mph - N/A   Clear
4:35 AM 19.4 °F 12.8 °F 13.1 °F 76% 30.23 in 10.0 mi North 4.6 mph - N/A   Clear
4:55 AM 19.4 °F 14.3 °F 12.7 °F 75% 30.23 in 10.0 mi North 3.5 mph - N/A   Clear
5:15 AM 18.5 °F - 12.7 °F 78% 30.24 in 10.0 mi Calm Calm - N/A   Clear
5:35 AM 19.0 °F 13.9 °F 12.2 °F 75% 30.24 in 10.0 mi North 3.5 mph - N/A   Clear
5:55 AM 18.5 °F - 12.2 °F 76% 30.25 in 10.0 mi Calm Calm - N/A   Clear
6:15 AM 19.2 °F - 12.2 °F 74% 30.25 in 10.0 mi Calm Calm - N/A   Clear
6:35 AM 17.1 °F - 11.7 °F 79% 30.25 in 10.0 mi Calm Calm - N/A   Clear
6:55 AM 17.6 °F - 12.0 °F 79% 30.26 in 10.0 mi Calm Calm - N/A   Clear
7:15 AM 19.0 °F - 14.4 °F 82% 30.27 in 10.0 mi Calm Calm - N/A   Clear
7:35 AM 21.2 °F - 13.5 °F 72% 30.28 in 10.0 mi Calm Calm - N/A   Clear
7:55 AM 22.1 °F - 12.4 °F 66% 30.28 in 10.0 mi Calm Calm - N/A   Clear
8:15 AM 23.5 °F 19.1 °F 10.8 °F 58% 30.28 in 10.0 mi East 3.5 mph - N/A   Clear
8:35 AM 24.3 °F - 11.3 °F 58% 30.27 in 10.0 mi Calm Calm - N/A   Clear
8:55 AM 25.5 °F - 12.7 °F 58% 30.27 in 10.0 mi Calm Calm - N/A   Clear
9:15 AM 26.4 °F 22.4 °F 13.1 °F 57% 30.27 in 10.0 mi East 3.5 mph - N/A   Clear
9:35 AM 27.1 °F - 12.2 °F 53% 30.28 in 10.0 mi Calm Calm - N/A   Clear
9:55 AM 28.0 °F 22.8 °F 13.1 °F 54% 30.28 in 10.0 mi ESE 4.6 mph - N/A   Clear
10:15 AM 28.8 °F 25.0 °F 14.0 °F 54% 30.28 in 10.0 mi ESE 3.5 mph - N/A   Clear
10:35 AM 29.5 °F - 13.6 °F 52% 30.28 in 10.0 mi Calm Calm - N/A   Clear
10:55 AM 31.5 °F 26.8 °F 15.3 °F 51% 30.27 in 10.0 mi SE 4.6 mph - N/A   Clear
11:15 AM 32.0 °F 25.6 °F 14.4 °F 48% 30.27 in 10.0 mi SSE 6.9 mph - N/A   Clear
11:35 AM 32.9 °F 27.5 °F 15.3 °F 48% 30.26 in 10.0 mi South 5.8 mph - N/A   Clear
11:55 AM 33.3 °F 27.9 °F 15.6 °F 48% 30.25 in 10.0 mi SSW 5.8 mph - N/A   Clear
12:15 PM 34.7 °F 28.8 °F 16.5 °F 48% 30.25 in 10.0 mi SSE 6.9 mph - N/A   Clear
12:55 PM 36.1 °F 31.4 °F 16.9 °F 46% 30.24 in 10.0 mi SSE 5.8 mph - N/A   Clear
1:00 PM 35.6 °F 30.7 °F 17.6 °F 48% 30.23 in 10.0 mi SSE 5.8 mph - N/A   Clear
1:15 PM 36.3 °F 33.7 °F 17.1 °F 46% 30.23 in 10.0 mi SSE 3.5 mph - N/A   Clear
1:35 PM 37.4 °F 32.8 °F 17.4 °F 44% 30.22 in 10.0 mi SE 5.8 mph - N/A   Clear
1:55 PM 38.1 °F 32.3 °F 18.1 °F 45% 30.20 in 10.0 mi SE 8.1 mph - N/A   Clear
2:15 PM 38.3 °F 35.9 °F 16.7 °F 42% 30.19 in 10.0 mi ESE 3.5 mph - N/A   Clear
2:35 PM 38.8 °F 35.4 °F 16.0 °F 40% 30.19 in 10.0 mi SE 4.6 mph - N/A   Clear
2:55 PM 38.7 °F 36.3 °F 16.0 °F 40% 30.19 in 10.0 mi SE 3.5 mph - N/A   Clear
3:15 PM 38.7 °F 32.9 °F 17.4 °F 42% 30.18 in 10.0 mi SE 8.1 mph - N/A   Clear
3:55 PM 38.7 °F 33.6 °F 17.8 °F 43% 30.17 in 10.0 mi SE 6.9 mph - N/A   Clear
4:15 PM 39.0 °F 32.3 °F 17.6 °F 42% 30.16 in 10.0 mi ESE 10.4 mph - N/A   Clear
4:55 PM 37.0 °F 31.0 °F 19.4 °F 49% 30.16 in 10.0 mi SE 8.1 mph - N/A   Clear
5:15 PM 35.4 °F 29.7 °F 19.4 °F 52% 30.15 in 10.0 mi ESE 6.9 mph - N/A   Clear
5:35 PM 34.7 °F 28.8 °F 20.3 °F 56% 30.15 in 10.0 mi ESE 6.9 mph - N/A   Clear
5:55 PM 33.8 °F 27.7 °F 20.1 °F 57% 30.14 in 10.0 mi East 6.9 mph - N/A   Clear
6:15 PM 32.9 °F 26.7 °F 20.3 °F 60% 30.14 in 10.0 mi East 6.9 mph - N/A   Clear
6:35 PM 32.5 °F 25.5 °F 20.8 °F 62% 30.13 in 10.0 mi East 8.1 mph - N/A   Clear
7:15 PM 32.5 °F 26.2 °F 21.7 °F 64% 30.13 in 10.0 mi East 6.9 mph - N/A   Clear
7:55 PM 32.7 °F 25.0 °F 22.3 °F 65% 30.13 in 10.0 mi ESE 9.2 mph - N/A   Clear
8:35 PM 32.4 °F 26.0 °F 21.7 °F 65% 30.13 in 10.0 mi ESE 6.9 mph - N/A   Clear
8:55 PM 32.2 °F 26.7 °F 21.6 °F 65% 30.13 in 10.0 mi ESE 5.8 mph - N/A   Clear
9:15 PM 32.0 °F 26.4 °F 21.2 °F 64% 30.14 in 10.0 mi ESE 5.8 mph - N/A   Clear
9:35 PM 31.6 °F 26.0 °F 21.2 °F 65% 30.12 in 10.0 mi ESE 5.8 mph - N/A   Clear
9:55 PM 31.5 °F 25.8 °F 21.2 °F 66% 30.12 in 10.0 mi ESE 5.8 mph - N/A   Clear
10:15 PM 31.8 °F 26.2 °F 20.8 °F 64% 30.12 in 10.0 mi ESE 5.8 mph - N/A   Clear
10:35 PM 31.6 °F 25.1 °F 21.4 °F 66% 30.11 in 10.0 mi ESE 6.9 mph - N/A   Clear
10:55 PM 31.8 °F 25.4 °F 21.2 °F 65% 30.10 in 10.0 mi ESE 6.9 mph - N/A   Clear
11:15 PM 32.0 °F 25.6 °F 21.0 °F 64% 30.10 in 10.0 mi ESE 6.9 mph - N/A   Clear
11:35 PM 32.0 °F 25.6 °F 20.8 °F 63% 30.10 in 10.0 mi ESE 6.9 mph - N/A   Clear